Weather History for Ft Lauderdale, FL

Change the Weather History Date:

Friday, November 12, 2010

  Actual Average Record
Temperature  
Mean Temperature 73 °F 76 °F  
Max Temperature 81 °F 82 °F 87 °F (1972)
Min Temperature 64 °F 70 °F 49 °F (1932)
Degree Days  
Heating Degree Days 0 0  
Month to date heating degree days 7 0  
Since 1 July heating degree days 7 0  
Cooling Degree Days 8 11  
Month to date cooling degree days 77 143  
Year to date cooling degree days 4000 4337  
Growing Degree Days 22 (Base 50)    
Moisture  
Dew Point 59 °F    
Average Humidity 65    
Maximum Humidity 87    
Minimum Humidity 42    
Precipitation  
Precipitation 0.01 in 0.11 in 5.10 in (1954)
Month to date precipitation 0.85 1.61  
Year to date precipitation 58.28 58.09  
Snow  
Snow 0.00 in - - ()
Month to date snowfall 0.0  
Since 1 July snowfall 0.0  
Since 1 September snowfall 0.0  
Snow Depth 0.00 in    
Sea Level Pressure  
Sea Level Pressure 30.10 in    
Wind  
Wind Speed 11 mph (NNE)    
Max Wind Speed 23 mph    
Max Gust Speed 26 mph    
Visibility 10 miles    
Events Rain    
T = Trace of Precipitation, MM = Missing Value Source: NWS Daily Summary

Daily Weather History Graph

Daily Weather History Graph

Search for Another Location

Airport:

Trip Planner

Search our weather history database for the weather conditions in past years. The results will help you decide how hot, cold, wet, or windy it might be!

Date:

Astronomy

Nov. 12, 2010 Rise Set
Actual Time 6:36 AM EST 5:32 PM EST
Civil Twilight 6:12 AM EST 5:56 PM EST
Nautical Twilight 5:44 AM EST 6:24 PM EST
Astronomical Twilight 5:17 AM EST 6:51 PM EST
Moon 12:08 PM EST (11/12) 11:32 PM EST (11/12)
Length of Visible Light 11h 44m
Length of Day
10h 55m
Waxing Crescent, 41% of the Moon is Illuminated
Nov 12
Waxing Crescent
Nov 13
First Quarter
Nov 21
Full
Nov 28
Last Quarter
Dec 5
New

Hourly Weather History & Observations

Time (EST) Temp. Heat Index Dew Point Humidity Pressure Visibility Wind Dir Wind Speed Gust Speed Precip Events Conditions
12:53 AM 66.0 °F - 62.1 °F 87% 30.11 in 10.0 mi NW 4.6 mph - 0.00 in   Scattered Clouds
1:53 AM 64.9 °F - 60.1 °F 84% 30.10 in 10.0 mi NW 5.8 mph - N/A   Scattered Clouds
2:53 AM 64.9 °F - 60.1 °F 84% 30.09 in 10.0 mi WNW 3.5 mph - N/A   Mostly Cloudy
3:53 AM 64.9 °F - 61.0 °F 87% 30.09 in 10.0 mi NNW 6.9 mph - N/A   Mostly Cloudy
4:53 AM 64.9 °F - 63.0 °F 93% 30.10 in 9.0 mi NNW 6.9 mph - 0.01 in Rain Light Rain
5:53 AM 68.0 °F - 64.9 °F 90% 30.10 in 5.0 mi NNE 8.1 mph - 0.00 in Rain Rain
6:53 AM 66.0 °F - 62.2 °F 88% 30.12 in 10.0 mi NW 6.9 mph - N/A Rain Light Rain
7:53 AM 66.9 °F - 62.2 °F 85% 30.13 in 10.0 mi NNW 5.8 mph - N/A   Overcast
8:53 AM 75.0 °F - 69.1 °F 82% 30.14 in 10.0 mi ENE 15.0 mph 20.7 mph N/A   Mostly Cloudy
9:53 AM 78.1 °F - 54.0 °F 43% 30.14 in 10.0 mi ENE 13.8 mph - N/A   Scattered Clouds
10:53 AM 79.0 °F - 57.0 °F 47% 30.13 in 10.0 mi NE 13.8 mph - N/A   Partly Cloudy
11:53 AM 80.1 °F 80.7 °F 59.0 °F 48% 30.12 in 10.0 mi NE 12.7 mph - N/A   Scattered Clouds
12:53 PM 80.1 °F 80.9 °F 60.1 °F 50% 30.09 in 10.0 mi NE 16.1 mph - N/A   Scattered Clouds
1:53 PM 79.0 °F - 57.9 °F 48% 30.08 in 10.0 mi NE 15.0 mph 25.3 mph N/A   Partly Cloudy
2:53 PM 79.0 °F - 59.0 °F 50% 30.07 in 10.0 mi NE 17.3 mph - N/A   Partly Cloudy
3:53 PM 78.1 °F - 59.0 °F 52% 30.07 in 10.0 mi NE 18.4 mph 24.2 mph N/A   Partly Cloudy
4:53 PM 77.0 °F - 59.0 °F 54% 30.07 in 10.0 mi NE 19.6 mph 24.2 mph N/A   Scattered Clouds
5:53 PM 75.0 °F - 57.9 °F 55% 30.09 in 10.0 mi NNE 17.3 mph 23.0 mph N/A   Scattered Clouds
6:53 PM 73.9 °F - 55.9 °F 53% 30.09 in 10.0 mi NNE 11.5 mph - N/A   Clear
7:53 PM 73.9 °F - 55.9 °F 53% 30.11 in 10.0 mi North 6.9 mph - N/A   Partly Cloudy
8:53 PM 71.1 °F - 55.9 °F 59% 30.12 in 10.0 mi NNW 6.9 mph - N/A   Mostly Cloudy
9:53 PM 71.1 °F - 57.0 °F 61% 30.11 in 10.0 mi NNW 8.1 mph - N/A   Overcast
10:53 PM 73.0 °F - 57.0 °F 57% 30.12 in 10.0 mi ENE 15.0 mph 21.9 mph N/A   Partly Cloudy
11:02 PM 73.4 °F - 55.4 °F 53% 30.11 in 10.0 mi ENE 16.1 mph 23.0 mph N/A   Scattered Clouds
11:53 PM 73.0 °F - 54.0 °F 51% 30.10 in 10.0 mi NE 11.5 mph - N/A   Partly Cloudy